CST,Max TemperatureF,Mean TemperatureF,Min TemperatureF,Max Dew PointF,MeanDew PointF,Min DewpointF,Max Humidity, Mean Humidity, Min Humidity, Max Sea Level PressureIn, Mean Sea Level PressureIn, Min Sea Level PressureIn, Max VisibilityMiles, Mean VisibilityMiles, Min VisibilityMiles, Max Wind SpeedMPH, Mean Wind SpeedMPH, Max Gust SpeedMPH,PrecipitationIn, CloudCover, Events, WindDirDegrees
2012-11-1,41,36,30,32,26,19,81,65,45,30.06,29.96,29.90,10,10,10,16,5,23,0.00,6,,3
2012-11-2,42,30,17,27,22,12,100,73,46,30.18,30.13,30.06,10,10,10,9,3,,0.00,1,,69
2012-11-3,39,36,32,27,26,21,80,73,61,30.24,30.22,30.19,10,10,10,6,3,,0.00,7,,94
2012-11-4,44,32,21,27,25,19,93,73,49,30.25,30.21,30.16,10,10,10,7,2,,0.00,4,,93
2012-11-5,42,35,28,32,28,23,80,70,53,30.22,30.13,29.92,10,10,10,10,5,16,0.00,7,,155
2012-11-6,41,37,33,37,35,32,100,90,70,29.96,29.81,29.73,10,8,1,13,8,21,0.27,8,Rain,283
2012-11-7,41,37,33,34,34,32,100,87,76,30.09,30.05,29.96,10,10,10,8,3,,0.00,7,,260
2012-11-8,50,40,30,34,32,30,100,78,50,30.05,29.98,29.90,10,10,7,15,7,23,0.00,1,,226
2012-11-9,42,35,28,36,35,28,100,86,76,30.10,30.05,30.01,10,10,2,13,4,18,0.00,7,,82
2012-11-10,60,48,37,54,44,36,100,91,77,30.00,29.66,29.47,10,5,1,20,8,25,0.06,7,Rain,137
2012-11-11,55,39,23,52,32,16,100,87,69,29.87,29.70,29.48,10,8,2,20,10,24,0.24,8,Rain-Snow,278
2012-11-12,26,22,19,18,15,12,86,73,59,30.24,30.00,29.87,10,9,2,18,12,24,0.00,8,Snow,282
2012-11-13,37,27,17,27,20,14,93,70,51,30.35,30.30,30.25,10,10,10,12,6,,0.00,3,,216
2012-11-14,46,38,30,32,29,27,93,72,53,30.27,30.22,30.14,10,10,10,9,6,,0.00,3,,187
2012-11-15,50,36,23,32,24,7,100,65,34,30.46,30.24,30.11,10,10,7,13,6,16,0.00,1,,339
2012-11-16,42,27,12,28,17,9,92,65,33,30.49,30.42,30.33,10,10,10,8,2,,0.00,0,,182
2012-11-17,55,44,32,36,32,28,93,68,41,30.33,30.26,30.21,10,10,7,17,9,22,0.00,2,,190
2012-11-18,55,48,42,32,31,30,61,52,38,30.22,30.14,30.08,10,10,10,18,12,26,0.00,3,,191
2012-11-19,55,44,32,37,34,30,100,65,47,30.11,30.06,30.02,10,10,7,13,8,28,0.00,5,,199
2012-11-20,46,35,24,37,30,23,100,92,62,30.15,30.11,30.05,10,6,0,5,1,,0.00,2,Fog,187
2012-11-21,59,44,28,41,35,27,100,66,42,30.03,29.88,29.69,10,10,5,15,6,21,0.00,0,,197
2012-11-22,55,39,23,41,35,21,100,71,54,29.86,29.69,29.59,10,9,1,22,13,26,0.00,3,Snow,268
2012-11-23,24,18,10,21,16,9,93,80,68,30.33,30.17,29.86,10,8,1,22,14,32,0.00,7,Snow,340
2012-11-24,26,14,1,19,11,-2,100,79,64,30.32,30.08,29.79,10,10,7,9,3,,0.00,4,,190
2012-11-25,28,24,17,23,20,10,86,76,59,30.14,29.93,29.78,10,10,3,17,6,23,0.00,7,Snow,319
2012-11-26,19,12,5,10,5,1,92,73,54,30.37,30.31,30.15,10,10,10,9,6,12,0.00,1,,307
2012-11-27,30,24,17,21,17,10,86,72,64,30.30,30.16,30.07,10,10,1,12,7,17,0.00,6,Snow,268
2012-11-28,32,26,21,25,20,14,86,76,69,30.32,30.21,30.09,10,10,10,13,6,16,0.00,4,,265
2012-11-29,32,24,17,27,23,14,100,85,75,30.17,30.12,30.07,10,9,4,13,4,18,0.00,4,,80
2012-11-30,32,30,28,32,26,23,100,85,80,30.21,30.15,30.08,10,9,4,13,6,17,0.00,8,,127